Orbital Elements at Epoch 2459200.5 (2020-Dec-17.0) TDB
Reference: JPL 17 (heliocentric ecliptic J2000)
Element | Value | Uncertainty (1-sigma) | Units |
e | .1778115505524678 | 3.3188e-08 | |
a | 2.309690970628475 | 1.1536e-08 | au |
q | 1.899001237843992 | 7.5443e-08 | au |
i | 3.356343298951389 | 4.1418e-06 | deg |
node | 116.0238486257275 | 6.2428e-05 | deg |
peri | 254.5880381579507 | 6.354e-05 | deg |
M | 243.3595867835739 | 1.1829e-05 | deg |
tp | 2459615.908893817951 (2022-Feb-05.40889382) | 4.2874e-05 | TDB |
period | 1282.12167336014 3.51 | 9.6055e-06 2.63e-08 | d yr |
n | .2807845834604172 | 2.1036e-09 | deg/d |
Q | 2.720380703412959 | 1.3587e-08 | au |
|
| | Orbit Determination Parameters
Additional Information
|